Showing default

COSMOS 1641, 15623

Orbit data source: Space-Track

COSMOS 1641, 15623 is a payload satellite owned by GUKOS (CIS) in LEO that was launched on Thu, 21 Mar 1985 UTC via a KOSMOS 11K65M launch vehicle from the Plesetsk Missile And Space Complex (PKMTR). Payload-class satellites include a variety of spacecraft equipped with specific instruments for various scientific and technological missions. These include communications satellites like Starlink; space stations such as the ISS; scientific satellites like the Hubble; Earth observation satellites from companies like Planet Labs, Umbra, and HawkEye 360; GPS; miniature CubeSats for education and research; and military/defense satellites.

Loading next visibility...
Identifier
15623, 1985-023G
Orbit
LEO
Country
Flag of CISCIS
Related business
Manufacturer
NPO PM
Mission
Spacecraft
Bus & Motor
STRELA-1 11F625, Unknown motor
Mass
60 kg wet, 60 kg dry
Launch date (UTC)
1985-03-21 (41 years ago)
Launch vehicle
KOSMOS 11K65M
Launch site
Plesetsk Missile And Space Complex (PKMTR)
Object type
Payload
Rocket body
Debris
Shape & HBR
Unknown
Radar Cross Section
Medium (>0.1 m² and <1 m²)

Expand to show TLE details & history
Last TLE update: 15 hours ago

TLE from 15 hours ago
0 COSMOS 1641
1 15623U 85023G   25348.97356797 -.00000024  00000-0 -51919-4 0  9997
2 15623  74.0565  82.7969 0043860 199.0794 278.1936 12.54559586865620
Epoch: 2025-12-14T23:21Z
TLE epoch observation values (Epoch: 2025-12-14T23:21:56.272Z)
Latitude
59.23896°
Longitude
159.90417°
Altitude
1,450.398 km
Speed
7.145 km/s
True Right ascension
15h 37m 04s
True Declination
59° 06' 04"
Sunlit
Object was in daylight at epoch
Visualization orbit readout
Latitude
Unknown
Longitude
Unknown
Altitude
Unknown
Speed
Unknown
Apparent Right ascension
Unknown
Apparent Declination
Unknown
Sunlit
N/A
Visualization observer readout
Local Sidereal Time
13:22:42
Azimuth
Unknown
Elevation
Unknown
Doppler factor
Unknown
Orbital elements
Apogee altitude
1,477.614 km
Perigee altitude
1,409.004 km
Semi-major axis
7,821.446 km
Eccentricity
0.00439
Inclination
74.0565°
RAAN
82.7969°
Arg. of periapsis
199.0794°
True anomaly
277.69575°
Mean anomaly
278.1936°
Eccentric anomaly
277.94471°
Mean motion
3.13771 °/min
Orbital period
114.73 mins
BSTAR
-0.000051919
Loading maneuver chart data...
Computing Atmospheric mass density...
Loading historical data...
Loading historical data...
Loading historical data...
Loading historical data...
Loading historical data...
Loading historical data...
Loading historical data...

Documentation

Showing up to 5 results
|